#timestamp,LO_Frequency,Hit,Temp,Hum 
1478138415.6,286047056.5,N,0.0,0.0
1478138435.4,286047059.9,N,0.0,0.0
1478138455.2,286047060.0,N,0.0,0.0
1478138475.1,286047062.8,N,0.0,0.0
1478138476.0,286047062.8,N,0.0,0.0
1478138495.8,286047060.8,N,0.0,0.0
1478138515.6,286047061.9,N,0.0,0.0
1478138535.5,286047062.9,N,0.0,0.0
1478138555.3,286047061.4,N,0.0,0.0
1478138575.1,286047056.5,N,0.0,0.0
1478138595.9,286047060.9,N,0.0,0.0
1478138615.7,286047054.7,N,0.0,0.0
1478138635.5,286047059.4,N,0.0,0.0
1478138655.4,286047060.8,N,0.0,0.0
1478138675.2,286047059.3,N,0.0,0.0
1478138695.0,286047055.7,N,0.0,0.0
1478138696.0,286047055.7,N,0.0,0.0
1478138715.8,286047058.8,N,0.0,0.0
1478138735.6,286047053.3,N,0.0,0.0
1478138755.5,286047058.4,N,0.0,0.0
1478138775.3,286047058.0,N,0.0,0.0
1478138795.1,286047057.5,N,0.0,0.0
1478138815.9,286047060.0,N,0.0,0.0
1478138835.7,286047057.4,N,0.0,0.0
1478138855.5,286047060.0,N,0.0,0.0
1478138875.4,286047056.1,N,0.0,0.0
1478138895.2,286047060.4,N,0.0,0.0
1478138915.0,286047059.5,N,0.0,0.0
1478138915.9,286047059.5,N,0.0,0.0
1478138935.8,286047059.8,N,0.0,0.0
1478138955.6,286047062.0,N,0.0,0.0
1478138975.4,286047059.3,N,0.0,0.0
1478138995.3,286047060.3,N,0.0,0.0
1478139015.1,286047060.0,N,0.0,0.0
1478139035.9,286047058.0,N,0.0,0.0
1478139055.7,286047060.0,N,0.0,0.0
1478139075.5,286047059.5,N,0.0,0.0
1478139095.4,286047059.3,N,0.0,0.0
1478139115.2,286047059.4,N,0.0,0.0
1478139135.0,286047061.4,N,0.0,0.0
1478139135.9,286047061.4,N,0.0,0.0
1478139155.8,286047059.4,N,0.0,0.0
1478139175.6,286047061.5,N,0.0,0.0
1478139195.4,286047061.2,N,0.0,0.0
1478139215.3,286047061.4,N,0.0,0.0
1478139235.1,286047061.0,N,0.0,0.0
1478139255.8,286047061.5,N,0.0,0.0
1478139275.7,286047061.8,N,0.0,0.0
1478139295.5,286047061.0,N,0.0,0.0
1478139315.3,286047061.5,N,0.0,0.0
1478139335.2,286047059.4,N,0.0,0.0
1478139355.0,286047061.9,N,0.0,0.0
1478139355.9,286047061.9,N,0.0,0.0
1478139375.8,286047061.6,N,0.0,0.0
1478139395.6,286047061.8,N,0.0,0.0
1478139415.4,286047061.3,N,0.0,0.0
1478139435.3,286047061.1,N,0.0,0.0
1478139455.1,286047060.9,N,0.0,0.0
1478139456.0,286047060.9,N,0.0,0.0
1478139475.8,286047061.1,N,0.0,0.0
1478139495.7,286047060.6,N,0.0,0.0
1478139515.5,286047063.3,N,0.0,0.0
1478139535.3,286047063.5,N,0.0,0.0
1478139555.2,286047060.6,N,0.0,0.0
1478139575.0,286047062.9,N,0.0,0.0
1478139575.9,286047062.9,N,0.0,0.0
1478139595.8,286047063.1,N,0.0,0.0
1478139615.6,286047059.1,N,0.0,0.0
1478139635.4,286047058.9,N,0.0,0.0
1478139655.3,286047060.9,N,0.0,0.0
1478139675.1,286047060.6,N,0.0,0.0
1478139676.0,286047060.6,N,0.0,0.0
1478139695.8,286047060.6,N,0.0,0.0
1478139715.7,286047061.0,N,0.0,0.0
1478139735.5,286047060.8,N,0.0,0.0
1478139755.3,286047060.8,N,0.0,0.0
1478139775.2,286047062.0,N,0.0,0.0
1478139795.0,286047061.7,N,0.0,0.0
1478139795.9,286047061.7,N,0.0,0.0
1478139815.7,286047060.8,N,0.0,0.0
1478139835.6,286047061.5,N,0.0,0.0
1478139855.4,286047061.1,N,0.0,0.0
1478139875.2,286047060.7,N,0.0,0.0
1478139895.1,286047063.4,N,0.0,0.0
1478139896.0,286047063.4,N,0.0,0.0
1478139915.8,286047065.2,N,0.0,0.0
1478139935.7,286047063.0,N,0.0,0.0
1478139955.5,286047063.6,N,0.0,0.0
1478139975.3,286047061.2,N,0.0,0.0
1478139995.2,286047063.4,N,0.0,0.0
1478140015.9,286047063.4,N,0.0,0.0
1478140035.7,286047063.5,N,0.0,0.0
1478140055.6,286047060.9,N,0.0,0.0
1478140075.4,286047063.5,N,0.0,0.0
1478140095.2,286047063.2,N,0.0,0.0
1478140115.1,286047063.5,N,0.0,0.0
1478140116.0,286047063.5,N,0.0,0.0
1478140135.8,286047063.4,N,0.0,0.0
1478140155.6,286047063.4,N,0.0,0.0
1478140175.5,286047061.1,N,0.0,0.0
1478140195.3,286047060.9,N,0.0,0.0
1478140215.2,286047060.9,N,0.0,0.0
1478140235.9,286047060.9,N,0.0,0.0
1478140255.7,286047063.3,N,0.0,0.0
1478140275.6,286047061.2,N,0.0,0.0
1478140295.4,286047060.8,N,0.0,0.0
1478140315.2,286047060.9,N,0.0,0.0
1478140335.1,286047061.2,N,0.0,0.0
1478140336.0,286047061.2,N,0.0,0.0
1478140355.8,286047063.5,N,0.0,0.0
1478140375.6,286047060.8,N,0.0,0.0
1478140395.5,286047062.3,N,0.0,0.0
1478140415.3,286047062.4,N,0.0,0.0
1478140435.1,286047063.4,N,0.0,0.0
1478140455.9,286047063.5,N,0.0,0.0
1478140475.7,286047062.3,N,0.0,0.0
1478140495.5,286047059.6,N,0.0,0.0
1478140515.4,286047063.4,N,0.0,0.0
1478140535.2,286047063.2,N,0.0,0.0
1478140555.1,286047062.2,N,0.0,0.0
1478140556.0,286047062.2,N,0.0,0.0
1478140575.8,286047060.7,N,0.0,0.0
1478140595.6,286047062.7,N,0.0,0.0
1478140615.5,286047060.5,N,0.0,0.0
1478140635.3,286047063.2,N,0.0,0.0
1478140655.1,286047061.5,N,0.0,0.0
1478140675.9,286047061.3,N,0.0,0.0
1478140695.7,286047062.4,N,0.0,0.0
1478140715.5,286047063.2,N,0.0,0.0
1478140735.4,286047060.7,N,0.0,0.0
1478140755.2,286047060.7,N,0.0,0.0
1478140775.0,286047060.6,N,0.0,0.0
1478140775.9,286047060.6,N,0.0,0.0
1478140795.8,286047060.5,N,0.0,0.0
1478140815.6,286047060.7,N,0.0,0.0
1478140835.5,286047063.4,N,0.0,0.0
1478140855.3,286047062.5,N,0.0,0.0
1478140875.1,286047062.1,N,0.0,0.0
1478140895.9,286047062.6,N,0.0,0.0
1478140915.7,286047062.5,N,0.0,0.0
1478140935.5,286047065.2,N,0.0,0.0
1478140955.4,286047063.2,N,0.0,0.0
1478140975.2,286047062.9,N,0.0,0.0
1478140995.0,286047060.9,N,0.0,0.0
1478140995.9,286047060.9,N,0.0,0.0
1478141015.8,286047060.5,N,0.0,0.0
1478141035.6,286047062.5,N,0.0,0.0
1478141055.4,286047065.1,N,0.0,0.0
1478141075.3,286047064.0,N,0.0,0.0
1478141095.1,286047065.1,N,0.0,0.0
1478141115.8,286047065.1,N,0.0,0.0
1478141135.7,286047062.5,N,0.0,0.0
1478141155.5,286047062.2,N,0.0,0.0
1478141175.4,286047065.1,N,0.0,0.0
1478141195.2,286047062.1,N,0.0,0.0
1478141215.0,286047062.5,N,0.0,0.0
1478141215.9,286047062.5,N,0.0,0.0
1478141235.8,286047064.5,N,0.0,0.0
1478141255.6,286047063.8,N,0.0,0.0
1478141275.4,286047064.5,N,0.0,0.0
1478141295.3,286047063.8,N,0.0,0.0
1478141315.1,286047066.7,N,0.0,0.0
1478141335.8,286047071.3,N,0.0,0.0
1478141355.7,286047062.8,N,0.0,0.0
1478141375.5,286047062.3,N,0.0,0.0
1478141395.3,286047065.0,N,0.0,0.0
1478141415.2,286047064.0,N,0.0,0.0
1478141435.0,286047064.1,N,0.0,0.0
1478141435.9,286047064.1,N,0.0,0.0
1478141455.8,286047064.5,N,0.0,0.0
1478141475.6,286047064.3,N,0.0,0.0
1478141495.4,286047065.0,N,0.0,0.0
1478141515.3,286047064.9,N,0.0,0.0
1478141535.1,286047063.9,N,0.0,0.0
1478141536.0,286047063.9,N,0.0,0.0
1478141555.8,286047064.4,N,0.0,0.0
1478141575.7,286047064.9,N,0.0,0.0
1478141595.5,286047066.6,N,0.0,0.0
1478141615.3,286047063.9,N,0.0,0.0
1478141635.2,286047064.1,N,0.0,0.0
1478141655.0,286047063.8,N,0.0,0.0
1478141655.9,286047063.8,N,0.0,0.0
1478141675.7,286047063.7,N,0.0,0.0
1478141695.6,286047063.7,N,0.0,0.0
1478141715.4,286047064.0,N,0.0,0.0
1478141735.2,286047066.7,N,0.0,0.0
1478141755.1,286047065.9,N,0.0,0.0
1478141756.0,286047065.9,N,0.0,0.0
1478141775.8,286047065.1,N,0.0,0.0
1478141795.7,286047064.6,N,0.0,0.0
1478141815.5,286047064.2,N,0.0,0.0
1478141835.3,286047063.9,N,0.0,0.0
1478141855.2,286047067.4,N,0.0,0.0
1478141875.9,286047062.2,N,0.0,0.0
1478141895.7,286047064.1,N,0.0,0.0
1478141915.6,286047066.5,N,0.0,0.0
1478141935.4,286047064.7,N,0.0,0.0
1478141955.2,286047063.8,N,0.0,0.0
1478141975.1,286047067.6,N,0.0,0.0
1478141976.0,286047067.6,N,0.0,0.0
1478141995.8,286047069.9,N,0.0,0.0
